カタログに戻る

STARLINK-11723

運用中通信VLEO
NORAD 64075·PAYLOAD·🇺🇸 United States

打ち上げ May 21, 2025 から Cape Canaveral Space Force Station

Loading…

次のパス (今後24時間)

TLE

最新Source: CelesTrak SupGP

元期: Sep 14, 2026, 20:58 UTC

1 64075C 25107M   26257.87409722  .00088740  00000+0  68941-3 0  2572
2 64075  43.0009  37.9767 0001703 276.6682 344.2094 15.70788457    16

AllMySatでSTARLINK-11723をリアルタイム追跡

Download on the App Store